Boston, MA

6:11 PM EDT on June 26, 2017 (GMT -0400)
Logan International

Weather History for KBOS - November, 2013

Change the Weather History Date:

Wednesday, November 20, 2013

  Actual Average Record
Temperature  
Mean Temperature 36 °F 44 °F  
Max Temperature 43 °F 50 °F 74 °F (1953)
Min Temperature 29 °F 37 °F 15 °F (1894)
Degree Days  
Heating Degree Days 29 22  
Month to date heating degree days 370 375  
Since 1 July heating degree days 722 822  
Cooling Degree Days 0 0  
Month to date cooling degree days 1 0  
Year to date cooling degree days 920 747  
Moisture  
Dew Point 11 °F    
Average Humidity 39    
Maximum Humidity 53    
Minimum Humidity 24    
Precipitation  
Precipitation 0.00 in 0.13 in 3.85 in (1876)
Month to date precipitation 0.58 2.63  
Year to date precipitation 33.60 38.63  
Sea Level Pressure  
Sea Level Pressure 30.50 in    
Wind  
Wind Speed 10 mph (NNW)    
Max Wind Speed 18 mph    
Max Gust Speed 24 mph    
Visibility 10 miles    
Events      
T = Trace of Precipitation, MM = Missing Value Source: NWS Daily Summary

Daily Weather History Graph

Daily Weather History Graph

Search for Another Location

Airport or City:

Trip Planner

Search our weather history database for the weather conditions in past years. The results will help you decide how hot, cold, wet, or windy it might be!

Date:

Astronomy

Nov. 20, 2013 Rise Set
Actual Time 6:41 AM EST 4:17 PM EST
Civil Twilight 6:10 AM EST 4:48 PM EST
Nautical Twilight 5:36 AM EST 5:22 PM EST
Astronomical Twilight 5:02 AM EST 5:56 PM EST
Moon 6:58 PM EST (11/20) 9:04 AM EST (11/20)
Length of Visible Light 10h 37m
Length of Day
9h 36m
Waning Gibbous, 91% of the Moon is Illuminated
Nov 20
Waning Gibbous
Nov 25
Last Quarter
Dec 2
New
Dec 9
First Quarter
Dec 17
Full

Hourly Weather History & Observations

Time (EST) Temp. Windchill Dew Point Humidity Pressure Visibility Wind Dir Wind Speed Gust Speed Precip Events Conditions
12:54 AM 32.0 °F 21.2 °F 12.9 °F 45% 30.31 in 10.0 mi NW 16.1 mph 23.0 mph N/A   Partly Cloudy
1:54 AM 32.0 °F 23.6 °F 12.0 °F 44% 30.33 in 10.0 mi NW 10.4 mph - N/A   Partly Cloudy
2:54 AM 30.9 °F 21.7 °F 12.9 °F 47% 30.35 in 10.0 mi NNW 11.5 mph 18.4 mph N/A   Clear
3:54 AM 30.9 °F 21.7 °F 12.9 °F 47% 30.37 in 10.0 mi NNW 11.5 mph 19.6 mph N/A   Clear
4:54 AM 30.0 °F 21.7 °F 14.0 °F 51% 30.40 in 10.0 mi NNW 9.2 mph - N/A   Clear
5:54 AM 28.9 °F 21.1 °F 14.0 °F 54% 30.43 in 10.0 mi NNW 8.1 mph - N/A   Partly Cloudy
6:54 AM 30.0 °F 21.1 °F 12.9 °F 49% 30.46 in 10.0 mi NNW 10.4 mph - N/A   Scattered Clouds
7:54 AM 32.0 °F 21.2 °F 12.0 °F 44% 30.48 in 10.0 mi NW 16.1 mph 23.0 mph N/A   Scattered Clouds
8:54 AM 34.0 °F 23.8 °F 12.0 °F 40% 30.51 in 10.0 mi NW 16.1 mph - N/A   Scattered Clouds
9:54 AM 36.0 °F 29.0 °F 10.9 °F 36% 30.54 in 10.0 mi NNW 9.2 mph - N/A   Scattered Clouds
10:54 AM 39.0 °F 32.8 °F 10.0 °F 30% 30.53 in 10.0 mi North 9.2 mph - N/A   Partly Cloudy
11:54 AM 39.9 °F 32.9 °F 9.0 °F 28% 30.53 in 10.0 mi North 11.5 mph - N/A   Scattered Clouds
12:54 PM 42.1 °F 36.1 °F 9.0 °F 26% 30.52 in 10.0 mi NNW 10.4 mph - N/A   Scattered Clouds
1:54 PM 42.1 °F 37.1 °F 9.0 °F 26% 30.52 in 10.0 mi NNW 8.1 mph - N/A   Scattered Clouds
2:54 PM 42.1 °F 37.1 °F 9.0 °F 26% 30.53 in 10.0 mi NNW 8.1 mph - N/A   Scattered Clouds
3:54 PM 41.0 °F 35.2 °F 9.0 °F 27% 30.54 in 10.0 mi North 9.2 mph - N/A   Scattered Clouds
4:54 PM 39.0 °F 34.0 °F 9.0 °F 29% 30.56 in 10.0 mi NNW 6.9 mph - N/A   Scattered Clouds
5:54 PM 37.9 °F 32.7 °F 10.0 °F 32% 30.58 in 10.0 mi NNW 6.9 mph - N/A   Clear
6:54 PM 37.9 °F 32.7 °F 10.0 °F 32% 30.59 in 10.0 mi North 6.9 mph - N/A   Clear
7:54 PM 37.0 °F 31.0 °F 10.0 °F 33% 30.61 in 10.0 mi NW 8.1 mph - N/A   Clear
8:54 PM 36.0 °F 29.6 °F 10.0 °F 34% 30.61 in 10.0 mi North 8.1 mph - N/A   Clear
9:54 PM 34.0 °F 28.8 °F 10.0 °F 37% 30.61 in 10.0 mi North 5.8 mph - N/A   Clear
10:54 PM 33.1 °F 28.7 °F 10.9 °F 40% 30.63 in 10.0 mi NNW 4.6 mph - N/A   Clear
11:54 PM 32.0 °F 26.4 °F 10.9 °F 42% 30.63 in 10.0 mi NNW 5.8 mph - N/A   Clear